{"data":{"norad_id":55104,"epoch":"2026-09-21T23:07:02.730720Z","epoch_age_seconds":41835,"freshness":"FRESH","line1":"1 55104U 23001CZ  26264.96322605  .00018728  00000+0  30517-3 0  9998","line2":"2 55104  97.3059 335.2529 0006727 110.3045 249.8932 15.52651258207494","mean_motion":15.52651258,"eccentricity":0.0006727,"inclination_deg":97.3059,"raan_deg":335.2529,"arg_perigee_deg":110.3045,"mean_anomaly_deg":249.8932,"bstar":0.00030517,"rev_number":20749,"period_min":92.744587207232,"perigee_km":404.42303836595,"apogee_km":413.55443733366,"semimajor_km":6787.1257378498,"source":"CELESTRAK","updated_at":"2026-09-22T09:00:25.271180Z"}}